Погода в Осиновой Речке

Россия / Хабаровский край     48°19′22″N   134°52′49″E
темп.,
°C
ветер,
м/с
пор.,
м/с
влажн.,
%
обл.,
%
осадки,
мм/ч
давл.,
гПа
погр.,
м
24 января, вс
вс2401:00−17ююз339092 0.0 102654
04:00−17юз349149 0.0 102487
07:00−17юз369189 0.0 1024154
10:00−19юз359122 0.0 1028152
13:00−12юз3587100 0.0 1026296
16:00−12юз3588100 0.0 1026295
19:00−15зюз349398 0.0 102872
22:00−15з348285 0.0 102962
25 января, пн
пн2501:00−16з34770 0.0 103163
04:00−18з22760 0.0 103331
07:00−21зсз11800 0.0 103520
10:00−19св11940 0.0 103564
13:00−15ссв228219 0.0 1035322
16:00−13всв228479 0.0 1032297
19:00−17св239857 0.0 103047
22:00−21св239944 0.0 103346
26 января, вт
вт2601:00−21св369848 0.0 1032149
04:00−21св359565 0.0 1029156
07:00−21св3593100 0.0 1027183
10:00−20всв3497100 0.5 1024168
13:00−16св3495100 2.0 1020178
16:00−16св3495100 4.1 1017169
19:00−16ссв2297100 1.0 101875
22:00−18ссв1299100 1.1 101729
27 января, ср
ср2701:00−20св11100100 0.1 101620
04:00−21з11100100 0.1 101720
07:00−21сз1199100 0.1 101723
10:00−20з119896 0.1 101863
13:00−18з1287100 0.1 1017404
16:00−17зюз378195 0.2 1018835
19:00−20юз259682 0.1 1019108
22:00−22юз129999 0.2 101923
28 января, чт
чт2801:00−23ююз239994 0.0 102025
04:00−25юз239778 0.0 102133
07:00−27юз239631 0.0 102130
10:00−25юз229315 0.0 102168
13:00−19ююз22820 0.0 1021382
16:00−19юз128489 0.0 1017415
19:00−25зюз119863 0.0 101720
22:00−26з119838 0.0 101720